星链-34829 (STARLINK-34829)

导读 | 豆包AI

STARLINK-34829是美国SpaceX公司星链(Starlink)星座中的一颗卫星,于2025年9月3日发射入轨。星链星座旨在构建全球低轨卫星互联网,为偏远欠发达地区提供高速、低延迟宽带服务。作为2025年SpaceX批量部署的V2迷你星链卫星之一,它进一步扩充了星链星座规模,助力该星座实现更广覆盖与更稳定网络服务,目前星链已覆盖超150个国家,拥有超700万用户。

基本信息
目录编号:
65470
目录名称:
STARLINK-34829
国际标识:
2025-195N
轨道中心:
EARTH
卫星名称:
星链-34829
卫星全名:
星链-34829 (STARLINK-34829)
卫星状态:
在轨 (已飞行192 天)
发射日期:
2025-09-03 UTC
国别 :
美国 (US)
星等 :
--
轨道信息
数据来源 国际轨道数据
星历时间: 2026-03-14T04:28:19+0800
14小时前
查看轨道信息
半长轴: 6853.291km
偏心率: 0.000154
轨道倾角: 53.159°
近地点辐角 98.340°
升交点赤经 238.662°
平近点角 261.777°
近地点: 474.098km
远地点: 476.21km
周期: 94.104分钟
每日圈数: 15.302206
详细信息
固有亮度:
5
最大亮度:
2.5
卫星平台:
Starlink V1.0
覆盖范围:
全球
运营商:
太空探索技术公司
运营商所在国:
美国
制造商(研发单位):
太空探索技术公司
制造商所在国:
美国
使用方式:
暂无
卫星简介
Starlink 计划是 SpaceX 推出的全球卫星互联网项目,通过发射低轨道卫星,为全球尤其是偏远地区提供高速、低延迟的互联网服务。自 2019 年起,Starlink 已部署数千颗卫星,旨在缩小全球数字鸿沟,推动互联网普及。该项目还为军事、航空等行业提供通信支持,带来广泛经济效益。
2D轨道图
3D轨道图
轨道高度分析图
轨道倾角分析图
轨道综合分析图
查看轨道综合分析图